Location: Hains Lake
(37.8540°N, 99.8578°W)
Time: 22:09:31
(UTC+00:00)

deb Explorer IX - Pass Details

Date: 28 April 2021
Orbit: 541 x 1098 km, 38.8° (Epoch: 13 May)

Event Time Altitude Azimuth Distance (km) Brightness Sun altitude
Rises 11:14:14 0° 259° (W) 2,755 - -6.8°
Exits shadow 11:16:01 - 259° (W) 2,031 ? -6.5°
Reaches altitude 10° 11:16:32 10° 259° (W) 1,823 ? -6.4°
Maximum altitude 11:20:39 90° 339° (NNW) 543 ? -5.6°
Drops below altitude 10° 11:24:45 10° 80° (E) 1,813 ? -4.9°
Sets 11:27:02 0° 81° (E) 2,737 ? -4.5°
